Starlink 32717

operational
NORAD ID: 62491 Int'l Des: 2025-003 Owner: SPXS Country: US Constellation: starlink
LEOCIRCULAR

Starlink 32717について

説明を読み込み中...

リアルタイム位置

3D地球を読み込み中...

次回通過

高度履歴

Altitude vs Time

uPlot chart will show altitude changes over time

軌道要素

1 62491U 25003E 26033.31873683 .00021610 00000-0 79204-3 0 9990
2 62491 43.0010 128.5908 0001045 250.6760 109.3979 15.27599938 61262
Epoch: Feb 2, 2026 • Age: 28 hours

現在のステータス

高度 495.4 km
速度 7.62 km/s
衛星直下点 -42.91°S, 92.98°E
打ち上げ日 Jan 6, 2025
運用期間 1 years
タイプ internet

技術仕様

分類 Payload
質量 730.00 kg
乾燥質量 700.00 kg
総質量 730.00 kg
長さ 0.30 m
直径 4.10 m
スパン 29.00 m
形状 Box + pan
製造者 SPXS
バスタイプ Starlink V2M
フェーズステータス In Orbit
所有者/国 SPXS/US

大規模コンステレーション

Loading constellations...